WGN187 KSEA-KLAX

Flight info

Callsign WGN187
Flight time N/A
Altitude 37000
Route SUMMA2 SUMMA JINMO Q7 JAGWA BURGL IRNMN2
Aircraft MD11/H-SDE1E2E3FGHIJ2J3J4J5M1RWXY/LB1D1

Departure

Time 2026-05-08 04:07
Airport Seattle–Tacoma International Airport (KSEA)

Arrival

Time N/A
Airport Los Angeles International Airport (KLAX)
Time Latitude Longitude Altitude Speed Heading
2026-05-08 03:53 47.46259 -122.30384 440 ft 0 kts 360°
2026-05-08 03:57 47.46258 -122.30384 440 ft 2 kts 360°
2026-05-08 03:58 47.46234 -122.30384 441 ft 1 kts 360°
2026-05-08 03:58 47.46223 -122.30384 442 ft 1 kts 356°
2026-05-08 03:58 47.46215 -122.30383 443 ft 0 kts 345°
2026-05-08 03:58 47.46207 -122.30378 443 ft 1 kts 326°
2026-05-08 03:59 47.46201 -122.30371 444 ft 0 kts 309°
2026-05-08 03:59 47.46198 -122.30363 444 ft 0 kts 294°
2026-05-08 03:59 47.46195 -122.30353 445 ft 1 kts 277°
2026-05-08 03:59 47.46195 -122.30344 445 ft 0 kts 270°
2026-05-08 04:00 47.46195 -122.30347 445 ft 0 kts 269°
2026-05-08 04:02 47.46195 -122.30359 445 ft 2 kts 262°
2026-05-08 04:02 47.46189 -122.30402 444 ft 5 kts 262°
2026-05-08 04:03 47.46185 -122.30472 443 ft 8 kts 268°
2026-05-08 04:03 47.46280 -122.30613 428 ft 9 kts
2026-05-08 04:03 47.46299 -122.30612 427 ft 0 kts
2026-05-08 04:04 47.46329 -122.30611 425 ft 3 kts
2026-05-08 04:04 47.46343 -122.30610 424 ft 0 kts
2026-05-08 04:05 47.46344 -122.30610 424 ft 0 kts 359°
2026-05-08 04:05 47.46371 -122.30637 420 ft 9 kts 308°
2026-05-08 04:06 47.46356 -122.30758 414 ft 15 kts 219°
2026-05-08 04:06 47.46263 -122.30778 420 ft 14 kts 179°
2026-05-08 04:06 47.45981 -122.30780 437 ft 72 kts 180°
2026-05-08 04:06 47.45265 -122.30789 423 ft 135 kts 180°
2026-05-08 04:07 47.44113 -122.30795 436 ft 186 kts 179°
2026-05-08 04:07 47.42831 -122.30782 1093 ft 184 kts 180°
2026-05-08 04:07 47.41596 -122.30793 1899 ft 179 kts 180°
2026-05-08 04:07 47.40367 -122.30820 2473 ft 179 kts 180°
2026-05-08 04:08 47.39096 -122.30837 2790 ft 193 kts 180°
2026-05-08 04:08 47.37668 -122.30847 3061 ft 216 kts 180°
2026-05-08 04:08 47.36082 -122.30855 3428 ft 240 kts 180°
2026-05-08 04:08 47.34361 -122.30868 3991 ft 258 kts 180°
2026-05-08 04:09 47.32538 -122.30891 4790 ft 269 kts 181°
2026-05-08 04:09 47.30662 -122.30915 5722 ft 275 kts 181°
2026-05-08 04:09 47.28728 -122.30938 6728 ft 279 kts 181°
2026-05-08 04:09 47.26793 -122.30955 7729 ft 282 kts 182°
2026-05-08 04:10 47.24848 -122.30953 8676 ft 286 kts 178°
2026-05-08 04:10 47.22946 -122.30208 9593 ft 290 kts 154°
2026-05-08 04:10 47.21202 -122.28642 10318 ft 304 kts 146°
2026-05-08 04:10 47.19442 -122.26714 10617 ft 333 kts 144°
2026-05-08 04:11 47.17517 -122.24563 10871 ft 362 kts 144°
2026-05-08 04:11 47.15402 -122.22306 11102 ft 392 kts 146°
2026-05-08 04:11 47.13016 -122.20117 11645 ft 407 kts 156°
2026-05-08 04:11 47.10341 -122.18733 12469 ft 415 kts 166°
2026-05-08 04:12 47.07529 -122.17709 13323 ft 422 kts 168°
2026-05-08 04:12 47.04686 -122.16711 14203 ft 430 kts 168°
2026-05-08 04:12 47.01768 -122.15617 15074 ft 437 kts 167°
2026-05-08 04:12 46.98822 -122.14422 15939 ft 443 kts 166°
2026-05-08 04:13 46.95880 -122.13181 16765 ft 449 kts 166°
2026-05-08 04:13 46.92886 -122.11909 17562 ft 455 kts 166°
2026-05-08 04:13 46.89813 -122.10603 18355 ft 461 kts 166°
2026-05-08 04:13 46.86742 -122.09312 19144 ft 466 kts 167°
2026-05-08 04:14 46.83588 -122.07997 19916 ft 471 kts 167°
2026-05-08 04:14 46.80457 -122.06690 20685 ft 476 kts 167°
2026-05-08 04:14 46.77261 -122.05342 21428 ft 481 kts 166°
2026-05-08 04:14 46.74070 -122.03999 22142 ft 486 kts 166°
2026-05-08 04:15 46.70787 -122.02626 22857 ft 490 kts 167°
2026-05-08 04:15 46.67512 -122.01262 23526 ft 495 kts 167°
2026-05-08 04:15 46.64156 -122.00281 24168 ft 495 kts 177°
2026-05-08 04:15 46.60727 -122.00192 24791 ft 495 kts 188°
2026-05-08 04:16 46.57373 -122.01043 25397 ft 494 kts 199°
2026-05-08 04:16 46.54108 -122.02651 25998 ft 496 kts 205°
2026-05-08 04:16 46.50899 -122.04565 26619 ft 500 kts 206°
2026-05-08 04:16 46.47697 -122.06532 27291 ft 503 kts 206°
2026-05-08 04:17 46.44511 -122.08445 28161 ft 502 kts 205°
2026-05-08 04:17 46.41256 -122.10259 29008 ft 502 kts 202°
2026-05-08 04:17 46.37884 -122.11527 29843 ft 505 kts 193°
2026-05-08 04:17 46.34397 -122.12083 30701 ft 507 kts 185°
2026-05-08 04:18 46.30878 -122.11937 31452 ft 510 kts 177°
2026-05-08 04:18 46.27399 -122.11105 32199 ft 511 kts 171°
2026-05-08 04:18 46.23966 -122.09918 32882 ft 510 kts 169°
2026-05-08 04:18 46.20506 -122.08745 33580 ft 507 kts 171°
2026-05-08 04:19 46.17058 -122.07738 34208 ft 502 kts 172°
2026-05-08 04:19 46.13694 -122.06791 34432 ft 499 kts 172°
2026-05-08 04:19 46.06807 -122.05178 35251 ft 498 kts 176°
2026-05-08 04:20 46.03400 -122.04491 35793 ft 497 kts 175°
2026-05-08 04:20 45.99979 -122.03743 36370 ft 496 kts 174°
2026-05-08 04:20 45.96577 -122.02942 36847 ft 495 kts 174°
2026-05-08 04:20 45.93198 -122.02130 37080 ft 494 kts 174°
2026-05-08 04:21 45.86468 -122.00511 37043 ft 489 kts 174°
2026-05-08 04:21 45.79711 -121.98911 37075 ft 493 kts 174°
2026-05-08 04:22 45.72964 -121.97309 37082 ft 499 kts 174°
2026-05-08 04:22 45.66039 -121.95676 37078 ft 507 kts 174°
2026-05-08 04:23 45.59023 -121.94009 37080 ft 515 kts 174°
2026-05-08 04:23 45.51987 -121.92346 37080 ft 512 kts 174°
2026-05-08 04:24 45.45110 -121.90731 37080 ft 496 kts 174°
2026-05-08 04:24 45.38349 -121.89199 37108 ft 491 kts 174°
2026-05-08 04:25 45.31623 -121.87643 37111 ft 493 kts 174°
2026-05-08 04:25 45.24813 -121.86087 37102 ft 496 kts 174°
2026-05-08 04:26 45.18013 -121.84514 37105 ft 496 kts 174°
2026-05-08 04:26 45.11228 -121.82960 37098 ft 496 kts 174°
2026-05-08 04:27 45.04467 -121.81404 37094 ft 494 kts 174°
2026-05-08 04:27 44.97650 -121.79840 37095 ft 495 kts 173°
2026-05-08 04:28 44.90874 -121.78280 37097 ft 495 kts 174°
2026-05-08 04:28 44.84071 -121.76715 37097 ft 496 kts 173°
2026-05-08 04:29 44.77276 -121.75155 37101 ft 496 kts 174°
2026-05-08 04:29 44.70505 -121.73595 37102 ft 496 kts 173°
2026-05-08 04:30 44.63686 -121.72043 37108 ft 494 kts 174°
2026-05-08 04:30 44.56909 -121.70530 37107 ft 495 kts 173°
2026-05-08 04:31 44.50111 -121.68984 37110 ft 495 kts 174°
2026-05-08 04:31 44.43317 -121.67462 37114 ft 496 kts 173°
2026-05-08 04:32 44.36550 -121.65931 37119 ft 496 kts 174°
2026-05-08 04:32 44.29725 -121.64417 37124 ft 495 kts 174°
2026-05-08 04:33 44.22945 -121.62891 37123 ft 495 kts 173°
2026-05-08 04:33 44.16206 -121.61318 37129 ft 495 kts 173°
2026-05-08 04:34 44.09402 -121.59779 37132 ft 495 kts 173°
2026-05-08 04:34 44.02608 -121.58198 37140 ft 495 kts 173°
2026-05-08 04:35 43.95851 -121.56669 37141 ft 494 kts 173°
2026-05-08 04:35 43.89092 -121.55091 37145 ft 495 kts 173°
2026-05-08 04:36 43.82291 -121.53554 37155 ft 495 kts 173°
2026-05-08 04:36 43.75501 -121.51968 37142 ft 495 kts 173°
2026-05-08 04:37 43.68744 -121.50442 37141 ft 495 kts 173°
2026-05-08 04:37 43.61951 -121.48852 37146 ft 494 kts 173°
2026-05-08 04:38 43.55188 -121.47328 37148 ft 493 kts 173°
2026-05-08 04:38 43.48408 -121.45747 37152 ft 494 kts 173°
2026-05-08 04:39 43.41623 -121.44248 37160 ft 494 kts 173°
2026-05-08 04:39 43.34872 -121.42718 37157 ft 493 kts 173°
2026-05-08 04:40 43.28125 -121.41225 37167 ft 493 kts 173°
2026-05-08 04:40 43.21377 -121.39690 37189 ft 493 kts 173°
2026-05-08 04:41 43.14623 -121.38196 37190 ft 492 kts 173°
2026-05-08 04:41 43.07843 -121.36660 37199 ft 492 kts 172°